Location: Newark
(34.3481°N, 134.0494°E)
Time: 03:49:07
(UTC+00:00)

Vanguard 3 - Pass Details

Date: 30 January 2020
Orbit: 508 x 3263 km, 33.3° (Epoch: 16 February)

Event Time Altitude Azimuth Distance (km) Brightness Sun altitude
Rises 10:09:31 0° 274° (W) 7,073 13.4 -20.5°
Reaches altitude 10° 10:14:06 10° 274° (W) 6,161 12.7 -21.5°
Maximum altitude 10:34:26 85° 189° (S) 2,977 9.8 -25.6°
Enters shadow 10:43:01 37° 105° (ESE) 3,505 9.8 -27.4°
Drops below altitude 10° 10:49:14 10° 103° (ESE) 4,701 - -28.7°
Sets 10:52:13 0° 103° (ESE) 5,401 - -29.3°
